User: anonymous   Login
Location: Unspecified
(0.0000°N, 0.0000°E)
Time: 12:34:58
(UTC+00:00)
Language:

DIAMOND GREEN - Orbit

View from above orbital plane
View from above orbital plane
View from above satellite
View from above satellite

Ground track
Ground track

The orbit data is extracted from the following two-line orbital elements,

1 42785U 17036W   18347.73358380 +.00000868 +00000-0 +41206-4 0  9992
2 42785 097.3791 044.2621 0012738 160.7421 199.4299 15.21822177081889
Epoch (UTC): 13 December 2018 17:36:21
Eccentricity: 0.0012738
inclination: 97.3791°
perigee height: 491 km
apogee height: 509 km
right ascension of ascending node: 44.2621°
argument of perigee: 160.7421°
revolutions per day: 15.21822177
mean anomaly at epoch: 199.4299°
orbit number at epoch: 8188

The dashed part of the orbit path shows where the satellite is in the earth's shadow,  

DLR